Regional Weather Roundup
Issued by NWS

Home | Current Version | Previous Version | Graphics & Text | Print | Product List | Glossary On
Versions: 1 2 3 4 5 6 7 8 9 10 11 12 13 14 15 16 17 18 19 20 21 22 23 24 25 26 27 28 29 30 31 32 33 34 35 36 37 38 39 40 41 42 43 44 45 46 47 48 49 50
000
ASUS44 KMEG 300710
RWRTN
TENNESSEE HOURLY STATE WEATHER ROUNDUP
NATIONAL WEATHER SERVICE MEMPHIS TN
200 AM CDT FRI SEP 30 2016

TNZ002-004-019-021-049-052-054-088>092-300800-
WEST TENNESSEE

CITY           SKY/WX    TMP DP  RH WIND       PRES   REMARKS
MEMPHIS INTL   PTCLDY    62  55  77 N3        30.11S
NWS MEMPHIS      N/A     56 N/A N/A MISG        N/A
JACKSON          N/A    N/A N/A N/A MISG      30.10S
DYERSBURG      PTCLDY   N/A N/A N/A MISG        N/A
UNION CITY     CLOUDY    57  57 100 N5        30.08F
PARIS          CLOUDY    54  54 100 N5        30.09F VSB 1/2
HUNTINGDON     CLOUDY    54  54 100 CALM      30.08S FOG
LEXINGTON      CLEAR     48  48 100 CALM      30.08S
$$

TNZ008-025-027-028-033-062-065-066-300800-
NORTH MIDDLE TENNESSEE

CITY           SKY/WX    TMP DP  RH WIND       PRES   REMARKS
NASHVILLE      PTCLDY    50  48  93 S3        30.07F
PORTLAND       CLOUDY    50  50 100 CALM      30.06F
CLARKSVILLE    CLOUDY    53  52  96 W3        30.07S
SMYRNA         CLEAR     48  47  96 S3        30.08S FOG
COOKEVILLE     MOCLDY    46  46 100 CALM      30.05F
GALLATIN       CLOUDY    50  48  93 CALM      30.09F FOG
CROSSVILLE     FOG       46  46 100 W5        30.07R VSB 1/4
$$

TNZ061-075-076-078-094-096-097-300800-
SOUTH MIDDLE TENNESSEE

CITY           SKY/WX    TMP DP  RH WIND       PRES   REMARKS
FAYETTEVILLE   CLOUDY    52  50  93 NW3       30.07S
TULLAHOMA      CLEAR     46  46 100 CALM      30.08S
WINCHESTER     MOCLDY    48  48 100 CALM      30.08S VSB 3/4
MCMINNVILLE    MOCLDY    50  50 100 CALM      30.07S
COLUMBIA       CLEAR    N/A N/A N/A CALM      30.06F
SHELBYVILLE    CLEAR     46  46 100 CALM      30.09S
$$

TNZ017-018-042-046-047-300800-
NORTHEAST TENNESSEE

CITY           SKY/WX    TMP DP  RH WIND       PRES   REMARKS
TRI CITIES     MOCLDY    57  55  93 CALM      30.03F
ELIZABETHTON   RAIN      57  57 100 CALM      30.03F
$$

TNZ012-013-036-069-073-074-300800-
CENTRAL EAST TENNESSEE

CITY           SKY/WX    TMP DP  RH WIND       PRES   REMARKS
KNOXVILLE      PTCLDY    55  47  74 CALM      30.03S
OAK RIDGE      CLEAR     49  46  90 CALM      30.06F
DOWNTOWN KNOXV CLEAR     54  52  94 CALM      30.04S
GATLINBURG     CLOUDY    57  48  72 CALM      30.03S
MORRISTOWN     CLOUDY    55  52  88 CALM      30.03S
JACKSBORO      CLEAR     46  45  93 CALM      30.08S
$$

TNZ083-085-099-300800-
SOUTHEAST TENNESSEE

CITY           SKY/WX    TMP DP  RH WIND       PRES   REMARKS
CHATTANOOGA    CLEAR     54  48  80 NW3       30.05F
$$

SKY/WX REPORTED AS FAIR MEANS FEW OR NO CLOUDS BELOW
12 THOUSAND FEET.




USA.gov is the U.S. government's official web portal to all federal, state and local government web resources and services.